STARLINK-4202 (52848 NORAD) Tracking and Keplerian Element Data

This shows tracking and keplerian element data for the satellite.

Feedback or suggestion? Click here.




ElementValue
Catalog52848
NameSTARLINK-4202
Epoch Orbit1282
Epoch Day248.25001157
Epoch Year2022
RAAN26.7197
Inclination53.2198
Eccentricity0.0001566
Argument of Perigee55.1855
Mean Anonmoly298.1816
Mean Motion15.08801203
Decay Rate0.00060947
L11 52848U 22062U 22248.25001157 .00060947 00000+0 38187-2 0 9992
L22 52848 53.2198 26.7197 0001566 55.1855 298.1816 15.08801203 12822

Live tracking and technical data element details for STARLINK-4202 (NORAD 52848). STARLINK-4202 can be tracked NOW for your location showing map with azimuth and elevation plus other details from your city location.

Track the satellite on the map from your city or location and see movement details for azimuth, elevation, latitude, longitude, range, height, and movement on the map or in text.







IsCatalogInMostPopularTable: catalog: 52848, numindb: 5
Update: records affected: 1



GetName: 52848 STARLINK-4202

Hit Count: updated at: Sun, 25 Sep 2022 08:01:04 GMT